THOR ABLESTAR DEB, 124

Orbit data source: Space-Track

THOR ABLESTAR DEB, 124 is space debris in LEO originally from a launch on Thu, 29 Jun 1961 UTC launched from the Air Force Eastern Test Range (AFETR). Debris objects in space refer to the collection of defunct objects orbiting the Earth. Examples of debris include non-operational satellites, rocket bodies, and fragments generated from explosions, collisions, or faulty payload assembly.

Loading next visibility...
Identifier
124, 1961-015J
Orbit
LEO
Country
Flag of USUS
Related business
Manufacturer
Unknown
Mission
Spacecraft
Bus & Motor
Unknown
Mass
Unknown
Launch date (UTC)
1961-06-29 (65 years ago)
Launch vehicle
Unknown
Launch site
Air Force Eastern Test Range (AFETR)
Object type
Payload
Rocket body
Debris
Shape & HBR
Unknown shape, 0.2 m
Radar Cross Section
Small (<0.1 m²)

Expand to show TLE details & history
Last TLE update: 11 hours ago

TLE from 11 hours ago
0 THOR ABLESTAR DEB
1 00124U 61015J   26036.00607624  .00000952  00000-0  34826-3 0  9994
2 00124  66.5424 234.8916 0074459 227.5884 131.8902 14.35755770339951
Epoch: 2026-02-05T00:08Z
TLE epoch observation values (Epoch: 2026-02-05T00:08:44.987Z)
Latitude
0.00005°
Longitude
97.53967°
Altitude
810.429 km
Speed
7.43 km/s
True Right ascension
15h 39m 33s
True Declination
0° 00' 00"
Sunlit
Object was in daylight at epoch
Visualization orbit readout
Latitude
Unknown
Longitude
Unknown
Altitude
Unknown
Speed
Unknown
Apparent Right ascension
Unknown
Apparent Declination
Unknown
Sunlit
N/A
Visualization observer readout
Local Sidereal Time
12:47:58
Azimuth
Unknown
Elevation
Unknown
Doppler factor
Unknown
Orbital elements
Apogee altitude
824.176 km
Perigee altitude
717.714 km
Semi-major axis
7,149.082 km
Eccentricity
0.00745
Inclination
66.5424°
RAAN
234.8916°
Arg. of periapsis
227.5884°
True anomaly
132.52144°
Mean anomaly
131.8902°
Eccentric anomaly
132.20621°
Mean motion
3.59061 °/min
Orbital period
100.26 mins
BSTAR
0.00034826

Documentation

Showing up to 5 results
|